Погода в Бейтбридже

Зимбабве     22°12′15″S   29°59′56″E
темп.,
°C
ветер,
м/с
пор.,
м/с
влажн.,
%
обл.,
%
осадки,
мм/ч
давл.,
гПа
погр.,
м
20 июня, вс
вс2023:00+15вюв367476 0.0 1030210
02:00+13юв48907 0.1 1030157
05:00+13вюв46894 0.0 102992
08:00+15в59802 0.0 1030421
11:00+21вюв67430 0.0 10291376
14:00+23вюв66290 0.0 10262053
17:00+21в573810 0.0 1025143
20:00+18вюв595487 0.0 1028228
21 июня, пн
пн2123:00+16вюв4966100 0.0 1028232
02:00+17вюв41065100 0.0 1027385
05:00+14в48854 0.0 1027162
08:00+16в69775 0.0 1029492
11:00+21в665324 0.0 10281226
14:00+23в444224 0.0 10241723
17:00+22вюв56440 0.0 1023171
20:00+17вюв33602 0.0 102535
22 июня, вт
вт2223:00+16вюв33665 0.0 102620
02:00+14вюв33720 0.0 102514
05:00+12вюв12800 0.0 102510
08:00+15в23600 0.0 1025154
11:00+21в22400 0.0 10241040
14:00+24в22300 0.0 10201542
17:00+22в22330 0.0 102013
20:00+18св33430 0.0 102216
23 июня, ср
ср2323:00+16вюв22510 0.0 102211
02:00+14юв22580 0.0 102111
05:00+13всв11700 0.0 102211
08:00+17ссз22580 0.0 1023116
11:00+22сз11480 0.0 1022907
14:00+25сз11340 0.0 10181687
17:00+23с12370 0.0 101811
20:00+19ссз22460 0.0 101911
24 июня, чт
чт2423:00+18вюв22480 0.0 102011
02:00+15юв11570 0.0 101911
05:00+14ссв11710 0.0 102011
08:00+18ссв11530 0.0 102276
11:00+24ссз12400 0.0 1020873
14:00+27сз23270 0.0 10171938
17:00+24сз22300 0.0 101611
20:00+20зсз33370 0.0 101812